Weather History for Cheyenne, WY

Change the Weather History Date:

Thursday, January 17, 2013

  Actual Average Record
Temperature  
Mean Temperature 29 °F 29 °F  
Max Temperature 45 °F 40 °F 60 °F (1954)
Min Temperature 13 °F 18 °F -30 °F (1930)
Degree Days  
Heating Degree Days 36 36  
Month to date heating degree days 728 613  
Since 1 July heating degree days 3430 3516  
Cooling Degree Days 0 0  
Month to date cooling degree days 0 0  
Year to date cooling degree days 0 0  
Moisture  
Dew Point 11 °F    
Average Humidity 48    
Maximum Humidity 67    
Minimum Humidity 28    
Precipitation  
Precipitation 0.00 in 0.01 in 0.22 in (1974)
Month to date precipitation 0.12 0.18  
Year to date precipitation 0.12 0.18  
Snow  
Snow 0.00 in 0.10 in 3.00 in (1930)
Month to date snowfall 2.9 3.2  
Since 1 July snowfall 28.3 25.9  
Snow Depth 1.00 in    
Sea Level Pressure  
Sea Level Pressure 30.40 in    
Wind  
Wind Speed 11 mph (WSW)    
Max Wind Speed 24 mph    
Max Gust Speed 30 mph    
Visibility 10 miles    
Events      
T = Trace of Precipitation, MM = Missing Value Source: NWS Daily Summary

Daily Weather History Graph

Daily Weather History Graph

Search for Another Location

Airport:

Trip Planner

Search our weather history database for the weather conditions in past years. The results will help you decide how hot, cold, wet, or windy it might be!

Date:

Astronomy

Jan. 17, 2013 Rise Set
Actual Time 7:21 AM MST 4:58 PM MST
Civil Twilight 6:51 AM MST 5:28 PM MST
Nautical Twilight 6:17 AM MST 6:02 PM MST
Astronomical Twilight 5:44 AM MST 6:35 PM MST
Moon 10:25 AM MST 11:56 PM MST
Length of Visible Light 10h 37m
Length of Day
9h 36m
Waxing Crescent, 38% of the Moon is Illuminated
Jan 17
Waxing Crescent
Jan 18
First Quarter
Jan 26
Full
Feb 3
Last Quarter
Feb 10
New

Hourly Weather History & Observations

Time (MST) Temp. Windchill Dew Point Humidity Pressure Visibility Wind Dir Wind Speed Gust Speed Precip Events Conditions
12:53 AM 26.1 °F 13.1 °F 10.9 °F 53% 30.40 in 10.0 mi WNW 17.3 mph - N/A   Clear
1:53 AM 25.0 °F 13.1 °F 10.0 °F 53% 30.41 in 10.0 mi WNW 13.8 mph - N/A   Clear
2:53 AM 19.0 °F 9.0 °F 8.1 °F 62% 30.46 in 10.0 mi West 8.1 mph - N/A   Clear
3:53 AM 21.0 °F 10.6 °F 8.1 °F 57% 30.48 in 10.0 mi West 9.2 mph - N/A   Clear
4:53 AM 19.4 °F 9.5 °F 6.8 °F 58% 30.36 in 10.0 mi West 8.1 mph - N/A   Clear
5:53 AM 18.0 °F 6.9 °F 6.1 °F 60% 30.53 in 10.0 mi West 9.2 mph - N/A   Clear
6:53 AM 15.1 °F 5.2 °F 6.1 °F 68% 30.56 in 10.0 mi WSW 6.9 mph - N/A   Clear
7:53 AM 16.0 °F 7.4 °F 6.1 °F 65% 30.56 in 10.0 mi West 5.8 mph - N/A   Clear
8:53 AM 23.0 °F 14.7 °F 9.0 °F 55% 30.55 in 10.0 mi WSW 6.9 mph - N/A   Clear
9:53 AM 34.0 °F 28.8 °F 14.0 °F 44% 30.50 in 10.0 mi SW 5.8 mph - N/A   Clear
10:53 AM 39.0 °F 31.8 °F 15.1 °F 38% 30.45 in 10.0 mi SSW 11.5 mph - N/A   Clear
11:53 AM 41.0 °F 34.3 °F 15.1 °F 35% 30.40 in 10.0 mi South 11.5 mph - N/A   Clear
12:53 PM 43.0 °F 36.8 °F 14.0 °F 31% 30.34 in 10.0 mi SSW 11.5 mph - N/A   Clear
1:53 PM 45.0 °F 41.2 °F 14.0 °F 29% 30.32 in 10.0 mi South 6.9 mph - N/A   Clear
2:53 PM 45.0 °F 41.2 °F 14.0 °F 29% 30.34 in 10.0 mi South 6.9 mph - N/A   Clear
3:53 PM 43.0 °F 37.7 °F 14.0 °F 31% 30.34 in 10.0 mi SSW 9.2 mph - N/A   Clear
4:53 PM 37.9 °F 31.5 °F 16.0 °F 41% 30.37 in 10.0 mi SSW 9.2 mph - N/A   Clear
5:53 PM 33.1 °F 23.9 °F 16.0 °F 50% 30.40 in 10.0 mi SW 12.7 mph - N/A   Clear
6:53 PM 30.0 °F 19.5 °F 16.0 °F 56% 30.42 in 10.0 mi SW 13.8 mph - N/A   Clear
7:53 PM 30.0 °F 21.1 °F 14.0 °F 51% 30.41 in 10.0 mi WSW 10.4 mph - N/A   Clear
8:53 PM 30.9 °F 20.2 °F 10.9 °F 43% 30.35 in 10.0 mi West 15.0 mph - N/A   Clear
9:53 PM 32.0 °F 20.1 °F 10.0 °F 40% 30.26 in 10.0 mi West 19.6 mph - N/A   Clear
10:53 PM 32.0 °F 19.8 °F 9.0 °F 38% 30.22 in 10.0 mi West 20.7 mph - N/A   Clear
11:53 PM 30.0 °F 19.5 °F 7.0 °F 38% 30.21 in 10.0 mi West 13.8 mph - N/A   Clear